Home   Weather   Arica   Past weeks

Flag for Chile Past Weather in Arica, Chile — Yesterday and Last 2 Weeks

Now
81 °F

Sunny.


Feels Like: 81 °F
Forecast: 73 / 82 °F
Wind: 13 mph from Southwest

Location: Arica Airport

Current Time: Jan 16, 2017 at 2:22:33 pm

Latest Report: Jan 16, 2017 at 2:00 pm


Visibility: 10 mi

Pressure: 29.86 "Hg

Humidity: 51%

Dew Point: 61 °F

Location of AricaLocation

Past Weather in Arica — Graph

°F

Arica Temperature Yesterday

Maximum temperature yesterday: 79 °F (at 12:00 pm)
Minimum temperature yesterday: 73 °F (at 8:00 am)
Average temperature yesterday: 76 °F

High & Low Weather Summary for the Past Weeks

 TemperatureHumidityPressure
High81 °F (Jan 5, 2:00 pm)100% (Jan 10, 10:00 am)29.98 "Hg (Jan 10, 10:00 am)
Low41 °F (Jan 10, 10:00 am)51% (Jan 1, 2:00 pm)29.74 "Hg (Jan 4, 3:00 pm)
Average74 °F68%29.88 "Hg
* Reported Jan 1 1:00 pm — Jan 16 1:00 pm, Arica, Weather by CustomWeather, © 2017

Note: Actual official high and low records may vary slightly from our data, if they occured in-between our weather recording intervals... More about our weather records

Advertising

Arica Weather History for the Previous 24 Hours

Scroll right to see more
 ConditionsComfort  
Time TempWeatherWind HumidityBarometerVisibility
1:00 pm
Mon, Jan 16
81 °FSunny.12 mph54%29.89 "Hg10 mi
12:00 pm79 °FSunny.8 mph58%29.92 "Hg10 mi
11:00 am77 °FSunny.6 mph61%29.92 "Hg10 mi
10:00 am77 °FSunny.2 mph65%29.92 "Hg10 mi
9:00 am73 °FSunny.No wind74%29.92 "Hg10 mi
8:00 am73 °FSunny.2 mph74%29.89 "Hg10 mi
7:00 am75 °FClear.3 mph69%29.89 "Hg10 mi
6:00 am75 °FClear.No wind69%29.86 "Hg10 mi
5:00 am75 °FPassing clouds.2 mph74%29.86 "HgN/A
4:00 am75 °FPassing clouds.3 mph69%29.89 "HgN/A
3:00 am75 °FPassing clouds.No wind74%29.89 "Hg6 mi
2:00 am75 °FClear.2 mph69%29.89 "Hg10 mi
1:00 am77 °FClear.2 mph69%29.92 "Hg10 mi
12:00 am75 °FClear.2 mph74%29.92 "Hg10 mi
11:00 pm
Sun, Jan 15
75 °FOvercast.No wind74%29.92 "HgN/A
10:00 pm75 °FOvercast.2 mph78%29.89 "HgN/A
9:00 pm73 °FClear.3 mph83%29.89 "Hg10 mi
8:00 pm73 °FBroken clouds.5 mph83%29.83 "HgN/A
7:00 pm75 °FOvercast.8 mph78%29.83 "HgN/A
6:00 pm75 °FSunny.9 mph74%29.83 "Hg10 mi
5:00 pm75 °FOvercast.12 mph78%29.83 "HgN/A
4:00 pm77 °FSunny.15 mph74%29.80 "Hg10 mi
3:00 pm77 °FSunny.14 mph69%29.83 "Hg10 mi
2:00 pm77 °FSunny.13 mph69%29.83 "Hg10 mi
Weather by CustomWeather, © 2017

See weather overviewHow to use our weather pages